FW7644 Weather Reports


time (UTC)temp
C
wind
direction
speed
KPH
gust
KPH
rain 1hr
cm
rain 24hr
cm
rain mn
cm
humidity
%
barometer
mb
20260906212439 7 0.0 0.0 0.00 0.38 0.08 99 1023.8
20260906211937 7 0.0 0.0 0.00 0.38 0.08 99 1023.7
20260906211435 7 0.0 0.0 0.00 0.38 0.08 99 1023.6
20260906210934 7 0.0 0.0 0.00 0.38 0.08 99 1023.7
20260906210432 7 0.0 0.0 0.00 0.38 0.08 99 1023.6
20260906205930 7 0.0 0.0 0.00 0.46 0.08 99 1023.4
20260906205428 7 0.0 0.0 0.00 0.46 0.08 98 1023.4
20260906204926 7 0.0 0.0 0.00 0.46 0.08 97 1023.4
20260906204424 7 0.0 0.0 0.00 0.46 0.08 97 1023.4
20260906203923 8 0.0 0.0 0.00 0.46 0.08 96 1023.4
20260906203422 8 0.0 0.0 0.00 0.46 0.08 95 1023.3
20260906202920 8 0.0 0.0 0.00 0.46 0.08 94 1023.1
20260906202418 8 0.0 0.0 0.00 0.46 0.08 94 1023.1
20260906201916 8 0.0 0.0 0.00 0.46 0.08 94 1023.1
20260906201414 8 0.0 0.0 0.00 0.46 0.08 93 1023.0
20260906200912 8 0.0 0.0 0.00 0.46 0.08 94 1023.0
20260906200411 8 0.0 0.0 0.00 0.46 0.08 94 1023.1
20260906195909 8 0.0 0.0 0.00 0.46 0.08 94 1023.2
20260906195407 8 0.0 0.0 0.00 0.46 0.08 93 1023.1
20260906194905 8 0.0 0.0 0.00 0.46 0.08 92 1023.2
20260906194403 9 0.0 0.0 0.00 0.46 0.08 93 1023.2
20260906193902 9 0.0 0.0 0.00 0.46 0.08 93 1023.1
20260906193400 9 0.0 0.0 0.00 0.46 0.08 91 1023.3
20260906192859 10 0.0 0.0 0.00 0.46 0.08 91 1023.1
20260906192357 10 0.0 0.0 0.00 0.46 0.08 91 1023.2
20260906191855 10 0.0 0.0 0.00 0.46 0.08 91 1023.0
20260906191353 10 0.0 0.0 0.00 0.46 0.08 92 1022.7
20260906190852 10 0.0 0.0 0.00 0.46 0.08 92 1022.4
20260906190350 10 0.0 0.0 0.00 0.46 0.08 89 1022.4
20260906185848 10 0.0 0.0 0.00 0.46 0.08 90 1022.5
20260906185347 10 0.0 0.0 0.00 0.46 0.08 90 1022.7
20260906184845 10 0.0 0.0 0.00 0.46 0.08 91 1022.6
20260906184343 10 0.0 0.0 0.00 0.46 0.08 90 1022.4
20260906183841 10 0.0 0.0 0.00 0.46 0.08 91 1022.6
20260906183339 10 0.0 0.0 0.00 0.46 0.08 88 1022.6
20260906182838 10 0.0 0.0 0.00 0.46 0.08 89 1022.7
20260906182336 10 0.0 0.0 0.00 0.46 0.08 88 1022.6
20260906181834 11 0.0 0.0 0.00 0.46 0.08 88 1022.5
20260906181332 11 0.0 0.0 0.00 0.46 0.08 88 1022.5
20260906180830 11 0.0 0.0 0.00 0.46 0.08 86 1022.4
20260906180329 11 0.0 0.0 0.00 0.46 0.08 90 1022.4
20260906175827 10 0.0 0.0 0.00 0.51 0.08 92 1022.4
20260906175325 10 0.0 0.0 0.00 0.51 0.08 92 1022.3
20260906174824 10 0.0 0.0 0.00 0.51 0.08 92 1022.4
20260906174322 10 0.0 0.0 0.00 0.51 0.08 91 1022.5
20260906173820 10 0.0 0.0 0.00 0.51 0.08 91 1022.7
20260906173318 11 0.0 0.0 0.00 0.51 0.08 87 1022.8
20260906172816 11 0.0 0.0 0.00 0.51 0.08 86 1022.7
20260906172314 11 0.0 0.0 0.00 0.51 0.08 85 1022.6
20260906171813 11 0.0 0.0 0.00 0.51 0.08 87 1022.4
20260906171311 11 0.0 0.0 0.00 0.51 0.08 87 1022.2
20260906170809 11 0.0 0.0 0.00 0.51 0.08 86 1022.7
20260906170307 12 0.0 0.0 0.00 0.51 0.08 83 1022.9
20260906165806 12 0.0 0.0 0.00 0.61 0.08 82 1022.8
20260906165306 12 0.0 0.0 0.00 0.61 0.08 84 1022.7
20260906164802 12 0.0 0.0 0.00 0.61 0.08 84 1023.1
20260906164300 12 0.0 0.0 0.00 0.61 0.08 84 1023.0
20260906163758 12 0.0 0.0 0.00 0.61 0.08 85 1022.9
20260906163256 12 0.0 0.0 0.00 0.61 0.08 85 1022.8
20260906162754 12 0.0 0.0 0.00 0.61 0.08 86 1022.9
20260906162252 12 0.0 0.0 0.00 0.61 0.08 85 1022.9
20260906161750 12 0.0 0.0 0.00 0.61 0.08 82 1022.9
20260906161249 13 0.0 0.0 0.00 0.61 0.08 78 1022.6
20260906160747 14 0.0 0.0 0.00 0.61 0.08 76 1022.8
20260906160245 13 0.0 0.0 0.00 0.61 0.08 80 1022.7
20260906155743 12 0.0 0.0 0.00 0.79 0.08 83 1022.6
20260906155241 12 0.0 0.0 0.00 0.79 0.08 83 1022.8
20260906154740 12 0.0 0.0 0.00 0.79 0.08 83 1023.0
20260906154238 12 0.0 0.0 0.00 0.79 0.08 86 1023.0
20260906153736 12 0.0 0.0 0.00 0.79 0.08 86 1023.2
20260906153235 12 0.0 0.0 0.00 0.79 0.08 85 1023.3
20260906152732 12 0.0 0.0 0.00 0.79 0.08 84 1023.2
20260906152231 13 0.0 0.0 0.00 0.79 0.08 79 1023.2
20260906151729 13 0.0 0.0 0.00 0.79 0.08 80 1023.4
20260906151228 13 0.0 0.0 0.00 0.79 0.08 80 1023.5
20260906150726 14 0.0 0.0 0.00 0.79 0.08 79 1023.4
20260906150224 13 0.0 0.0 0.00 0.79 0.08 79 1023.5
20260906145722 13 0.0 0.0 0.00 0.79 0.08 81 1023.6
20260906145221 13 0.0 0.0 0.00 0.79 0.08 80 1023.7
20260906144719 13 0.0 0.0 0.00 0.79 0.08 80 1023.7
20260906144217 13 0.0 0.0 0.00 0.79 0.08 81 1023.8
20260906143715 13 0.0 0.0 0.00 0.79 0.08 82 1023.9
20260906143213 12 0.0 0.0 0.00 0.79 0.08 82 1023.9
20260906142711 13 0.0 0.0 0.00 0.79 0.08 82 1024.0
20260906142210 13 0.0 0.0 0.00 0.79 0.08 83 1023.8
20260906141708 12 0.0 0.0 0.00 0.79 0.08 86 1023.9
20260906141206 12 0.0 0.0 0.00 0.79 0.08 88 1024.1
20260906140704 12 0.0 0.0 0.00 0.79 0.08 88 1024.1
20260906140202 12 0.0 0.0 0.00 0.79 0.08 91 1024.2
20260906135700 12 0.0 0.0 0.00 0.79 0.08 90 1024.2
20260906135158 12 0.0 0.0 0.00 0.79 0.08 90 1024.1
20260906134657 12 0.0 0.0 0.00 0.79 0.08 91 1024.1
20260906134155 12 0.0 0.0 0.00 0.79 0.08 92 1023.9
20260906133653 12 0.0 0.0 0.00 0.79 0.08 93 1024.0
20260906133151 12 0.0 0.0 0.00 0.79 0.08 94 1024.1
20260906132650 11 0.0 0.0 0.00 0.79 0.08 95 1024.0
20260906132148 11 0.0 0.0 0.00 0.79 0.08 97 1024.2
20260906131646 11 0.0 0.0 0.00 0.79 0.08 97 1024.2
20260906131144 11 0.0 0.0 0.00 0.79 0.08 95 1024.4
20260906130642 11 0.0 0.0 0.00 0.79 0.08 95 1024.2
20260906130140 11 0.0 0.0 0.00 0.79 0.08 93 1024.1
20260906125638 12 0.0 0.0 0.00 1.02 0.08 93 1024.0
20260906125136 12 0.0 0.0 0.00 1.02 0.08 95 1023.9
20260906124634 12 0.0 0.0 0.00 1.02 0.08 94 1023.9
20260906124132 12 0.0 0.0 0.00 1.02 0.08 98 1023.9
20260906123630 11 0.0 0.0 0.00 1.02 0.08 99 1023.5
20260906123127 11 0.0 0.0 0.00 1.02 0.08 99 1023.6
20260906122625 11 0.0 0.0 0.00 1.02 0.08 99 1023.3
20260906122123 10 0.0 0.0 0.00 1.02 0.08 99 1023.3
20260906121620 10 0.0 0.0 0.00 1.02 0.08 99 1023.3
20260906121118 10 0.0 0.0 0.00 1.02 0.08 99 1023.4
20260906120615 10 0.0 0.0 0.00 1.02 0.08 99 1023.4
20260906120113 11 0.0 0.0 0.00 1.02 0.08 99 1023.3
20260906115611 11 0.0 0.0 0.00 1.02 0.08 99 1023.3
20260906115109 10 0.0 0.0 0.00 1.02 0.08 99 1023.2
20260906114607 10 0.0 0.0 0.00 1.02 0.08 99 1023.3
20260906114106 10 0.0 0.0 0.00 1.02 0.08 99 1023.2
20260906113603 10 0.0 0.0 0.00 1.02 0.08 99 1023.0
20260906113101 10 0.0 0.0 0.00 1.02 0.08 99 1022.9
20260906112559 11 0.0 0.0 0.00 1.02 0.08 99 1022.9
20260906112058 11 0.0 0.0 0.00 1.02 0.08 99 1022.8
20260906111556 11 0.0 0.0 0.00 1.02 0.08 99 1022.9
20260906111054 11 0.0 0.0 0.00 1.02 0.08 99 1022.8
20260906110552 11 0.0 0.0 0.00 1.02 0.08 99 1022.7
20260906110049 11 0.0 0.0 0.00 1.02 0.08 99 1023.0
20260906105548 11 0.0 0.0 0.00 1.50 0.08 99 1022.9
20260906105046 10 0.0 0.0 0.00 1.50 0.08 99 1022.8
20260906104545 10 0.0 0.0 0.00 1.50 0.08 99 1022.7
20260906104043 10 0.0 0.0 0.00 1.50 0.08 99 1022.7
20260906103541 10 0.0 0.0 0.00 1.50 0.08 99 1022.6
20260906103039 10 0.0 0.0 0.00 1.50 0.08 99 1022.6
20260906102538 10 0.0 0.0 0.00 1.50 0.08 99 1022.6
20260906102036 10 0.0 0.0 0.00 1.50 0.08 99 1022.5
20260906101534 10 0.0 0.0 0.00 1.50 0.08 99 1022.4
20260906101033 10 0.0 0.0 0.00 1.50 0.08 99 1022.3
20260906100531 10 0.0 0.0 0.00 1.50 0.08 99 1022.3
20260906100029 10 0.0 0.0 0.00 1.50 0.08 99 1022.3
20260906095527 10 0.0 0.0 0.00 1.52 0.08 99 1022.2
20260906095026 10 0.0 0.0 0.00 1.52 0.08 99 1022.1
20260906094524 10 0.0 0.0 0.00 1.52 0.08 99 1022.2
20260906094022 10 0.0 0.0 0.00 1.52 0.08 99 1022.4
20260906093520 10 0.0 0.0 0.00 1.52 0.08 99 1022.5
20260906093019 10 0.0 0.0 0.00 1.52 0.08 99 1022.6
20260906092517 10 0.0 0.0 0.00 1.52 0.08 99 1022.3
20260906092016 10 0.0 0.0 0.00 1.52 0.08 99 1022.0
20260906091514 10 0.0 0.0 0.00 1.52 0.08 99 1022.0
20260906091012 10 0.0 0.0 0.00 1.52 0.08 99 1022.2
20260906090511 10 0.0 0.0 0.00 1.52 0.08 99 1022.2
20260906090009 10 0.0 0.0 0.00 1.52 0.08 99 1022.0
20260906085507 10 0.0 0.0 0.00 1.52 0.08 99 1022.0
20260906085005 10 0.0 0.0 0.00 1.52 0.08 99 1021.8
20260906084504 10 0.0 0.0 0.00 1.52 0.08 99 1021.8
20260906084002 10 0.0 0.0 0.00 1.52 0.08 99 1021.7
20260906083501 10 0.0 0.0 0.00 1.52 0.08 99 1021.8
20260906082959 10 0.0 0.0 0.00 1.52 0.08 99 1021.7
20260906082458 10 0.0 0.0 0.00 1.52 0.08 99 1021.5
20260906081956 10 0.0 0.0 0.00 1.52 0.08 99 1021.5
20260906081454 10 0.0 0.0 0.00 1.52 0.08 99 1021.2
20260906080952 10 0.0 0.0 0.00 1.52 0.08 99 1020.8
20260906080451 10 0.0 0.0 0.00 1.52 0.08 99 1020.7
20260906075949 10 0.0 0.0 0.00 1.52 0.08 99 1020.8
20260906075448 10 0.0 0.0 0.00 1.52 0.08 99 1020.9
20260906074946 10 0.0 0.0 0.00 1.52 0.08 99 1020.7
20260906074445 10 0.0 0.0 0.00 1.52 0.08 99 1020.6
20260906073943 10 0.0 0.0 0.00 1.52 0.08 99 1020.5
20260906073442 10 0.0 0.0 0.00 1.52 0.08 99 1020.6
20260906072941 10 0.0 0.0 0.00 1.52 0.08 99 1020.5
20260906072439 10 0.0 0.0 0.00 1.52 0.08 99 1020.3
20260906071937 10 0.0 0.0 0.00 1.52 0.08 99 1020.4
20260906071436 10 0.0 0.0 0.00 1.52 0.08 99 1020.5
20260906070934 10 0.0 0.0 0.00 1.52 0.08 99 1020.6
20260906070433 10 0.0 0.0 0.00 1.52 0.08 99 1020.6
20260906065931 10 0.0 0.0 0.00 1.52 0.08 99 1020.6
20260906065429 10 0.0 0.0 0.00 1.52 0.08 99 1020.6
20260906064928 10 0.0 0.0 0.00 1.52 0.08 99 1020.6
20260906064426 10 0.0 0.0 0.00 1.52 0.08 99 1020.7
20260906063924 10 0.0 0.0 0.00 1.52 0.08 99 1020.8
20260906063423 10 0.0 0.0 0.00 1.52 0.08 99 1020.7
20260906062921 10 0.0 0.0 0.00 1.52 0.08 99 1020.7
20260906062421 10 0.0 0.0 0.00 1.52 0.08 99 1020.6
20260906061918 10 0.0 0.0 0.00 1.52 0.08 99 1020.5
20260906061416 10 0.0 0.0 0.00 1.52 0.08 99 1020.6
20260906060915 10 0.0 0.0 0.00 1.52 0.08 99 1020.7
20260906060413 10 0.0 0.0 0.00 1.52 0.08 99 1020.8
20260906055911 10 0.0 0.0 0.00 1.52 0.08 99 1020.8
20260906055410 10 0.0 0.0 0.00 1.52 0.08 99 1020.8
20260906054908 10 0.0 0.0 0.00 1.52 0.08 99 1020.7
20260906054407 10 0.0 0.0 0.00 1.52 0.08 99 1020.6
20260906053905 10 0.0 0.0 0.03 1.52 0.08 99 1020.5
20260906053403 10 0.0 0.0 0.03 1.52 0.08 99 1020.5
20260906052902 10 0.0 0.0 0.03 1.52 0.08 99 1020.5
20260906052401 10 0.0 0.0 0.03 1.52 0.08 99 1020.5
20260906051859 10 0.0 0.0 0.03 1.52 0.08 99 1020.4
20260906051357 10 0.0 0.0 0.03 1.52 0.08 99 1020.4
20260906050856 10 0.0 0.0 0.05 1.52 0.08 99 1020.2
20260906050354 10 0.0 0.0 0.05 1.52 0.08 99 1020.4
20260906045852 10 0.0 0.0 0.08 1.52 0.08 99 1020.6
20260906045352 10 0.0 0.0 0.08 1.52 0.08 99 1020.4
20260906044850 10 0.0 0.0 0.08 1.52 0.08 99 1020.3
20260906044349 10 0.0 0.0 0.08 1.52 0.08 99 1020.4
20260906043847 10 0.0 0.0 0.08 1.52 0.08 99 1020.8
20260906043345 10 0.0 0.0 0.05 1.50 0.05 99 1020.8
20260906042844 10 0.0 0.0 0.05 1.50 0.05 99 1020.7
20260906042343 10 0.0 0.0 0.05 1.50 0.05 99 1020.8
20260906041841 10 0.0 0.0 0.05 1.50 0.05 99 1021.2
20260906041339 10 0.0 0.0 0.05 1.50 0.05 99 1021.0
20260906040838 10 0.0 0.0 0.05 1.50 0.05 99 1021.0
20260906040337 10 0.0 0.0 0.03 1.47 0.03 99 1021.0
20260906035835 10 0.0 0.0 0.03 1.47 0.03 99 1021.2
20260906035334 10 0.0 0.0 0.00 1.45 0.00 99 1021.2
20260906034832 10 0.0 0.0 0.00 1.45 0.00 99 1021.3
20260906034331 10 0.0 0.0 0.00 1.45 0.00 99 1021.1
20260906033829 10 0.0 0.0 0.00 1.45 0.00 99 1021.4
20260906033327 10 0.0 0.0 0.00 1.45 0.00 99 1021.5
20260906032826 10 0.0 0.0 0.00 1.45 0.00 99 1021.5
20260906032324 10 0.0 0.0 0.00 1.45 0.00 99 1021.3
20260906031822 10 0.0 0.0 0.00 1.45 0.00 99 1021.4
20260906031321 10 0.0 0.0 0.00 1.45 0.00 99 1021.3
20260906030819 10 0.0 0.0 0.00 1.45 0.00 99 1021.0
20260906030318 10 0.0 0.0 0.00 1.45 0.00 99 1020.7
20260906025816 10 0.0 0.0 0.00 1.55 1.45 99 1021.1
20260906025314 10 0.0 0.0 0.00 1.55 1.45 99 1021.3
20260906024813 10 0.0 0.0 0.03 1.55 1.45 99 1021.0
20260906024311 10 0.0 0.0 0.03 1.55 1.45 99 1020.9
20260906023810 10 0.0 0.0 0.03 1.55 1.45 99 1021.0
20260906023308 10 0.0 0.0 0.03 1.55 1.45 99 1021.1
20260906022806 10 0.0 0.0 0.03 1.55 1.45 99 1021.0
20260906022307 10 0.0 0.0 0.03 1.55 1.45 99 1020.9
20260906021804 10 0.0 0.0 0.05 1.55 1.45 99 1020.9
20260906021302 10 0.0 0.0 0.05 1.55 1.45 99 1020.8
20260906020801 10 0.0 0.0 0.05 1.55 1.45 99 1020.6
20260906020259 10 0.0 0.0 0.05 1.55 1.45 99 1020.7
20260906015757 10 0.0 0.0 0.08 1.57 1.45 99 1021.0
20260906015256 10 0.0 0.0 0.08 1.57 1.45 99 1021.1
20260906014754 10 0.0 0.0 0.10 1.57 1.45 99 1021.2
20260906014252 10 0.0 0.0 0.08 1.55 1.42 99 1021.2
20260906013750 10 0.0 0.0 0.08 1.55 1.42 99 1020.9
20260906013248 10 0.0 0.0 0.08 1.55 1.42 99 1020.9
20260906012746 10 0.0 0.0 0.10 1.55 1.42 99 1020.7
20260906012244 10 0.0 0.0 0.10 1.55 1.42 99 1020.7
20260906011742 10 0.0 0.0 0.10 1.52 1.40 99 1020.8
20260906011240 10 0.0 0.0 0.10 1.52 1.40 99 1020.8
20260906010738 10 0.0 0.0 0.13 1.52 1.40 99 1020.6
20260906010236 10 0.0 0.0 0.13 1.52 1.40 99 1020.5
20260906005734 10 0.0 0.0 0.13 1.52 1.40 99 1020.4
20260906005232 10 0.0 0.0 0.13 1.52 1.40 99 1020.4
20260906004730 10 0.0 0.0 0.08 1.47 1.35 99 1020.5
20260906004228 10 0.0 0.0 0.08 1.47 1.35 99 1020.3
20260906003725 10 0.0 0.0 0.10 1.47 1.35 99 1020.6
20260906003224 10 0.0 0.0 0.10 1.47 1.35 99 1020.3
20260906002722 10 0.0 0.0 0.10 1.45 1.32 99 1019.9
20260906002220 10 0.0 0.0 0.10 1.45 1.32 99 1019.9
20260906001718 10 0.0 0.0 0.10 1.45 1.32 99 1020.1
20260906001216 10 0.0 0.0 0.08 1.42 1.30 99 1020.2
20260906000714 10 0.0 0.0 0.08 1.42 1.30 99 1020.4
20260906000212 10 0.0 0.0 0.05 1.40 1.27 99 1020.1
20260905235711 10 0.0 0.0 0.05 1.40 1.27 99 1019.9
20260905235208 10 0.0 0.0 0.05 1.40 1.27 99 1019.8
20260905234706 10 0.0 0.0 0.08 1.40 1.27 99 1019.7
20260905234204 10 0.0 0.0 0.08 1.40 1.27 99 1019.9
20260905233702 10 0.0 0.0 0.05 1.37 1.24 99 1019.8
20260905233200 10 0.0 0.0 0.05 1.37 1.24 99 1019.7
20260905232658 10 0.0 0.0 0.08 1.37 1.24 99 1019.5
20260905232156 10 0.0 0.0 0.05 1.35 1.22 99 1019.4
20260905231654 10 0.0 0.0 0.08 1.35 1.22 99 1019.1
20260905231153 10 0.0 0.0 0.08 1.35 1.22 99 1018.8
20260905230651 10 0.0 0.0 0.08 1.35 1.22 99 1018.7
20260905230149 10 0.0 0.0 0.08 1.35 1.22 99 1018.5
20260905225648 10 0.0 0.0 0.08 1.35 1.22 99 1018.4
20260905225146 10 0.0 0.0 0.08 1.35 1.22 99 1018.4
20260905224644 10 0.0 0.0 0.05 1.32 1.19 99 1018.2
20260905224143 10 0.0 0.0 0.05 1.32 1.19 99 1018.4
20260905223641 10 0.0 0.0 0.05 1.32 1.19 99 1018.3
20260905223140 10 0.0 0.0 0.05 1.32 1.19 99 1018.2
20260905222638 10 0.0 0.0 0.05 1.32 1.19 99 1018.4
20260905222136 10 0.0 0.0 0.05 1.32 1.19 99 1018.3
20260905221635 10 0.0 0.0 0.00 1.27 1.14 99 1018.2
20260905221133 10 0.0 0.0 0.00 1.27 1.14 99 1018.0
20260905220631 10 0.0 0.0 0.00 1.27 1.14 99 1017.8
20260905220129 10 0.0 0.0 0.00 1.27 1.14 99 1017.5
20260905215628 10 0.0 0.0 0.00 1.30 1.14 99 1017.5
20260905215126 10 0.0 0.0 0.00 1.30 1.14 99 1017.5
20260905214625 10 0.0 0.0 0.00 1.30 1.14 99 1017.5
20260905214123 11 0.0 0.0 0.00 1.30 1.14 99 1017.3
20260905213621 10 0.0 0.0 0.03 1.30 1.14 99 1017.3
20260905213119 10 0.0 0.0 0.03 1.30 1.14 99 1017.5